Starlink 30700

operational
NORAD ID: 57953 Int'l Des: 2023-148 Owner: SPXS Country: US Constellation: starlink
LEOCIRCULAR

Starlink 30700について

説明を読み込み中...

リアルタイム位置

3D地球を読み込み中...

次回通過

高度履歴

Altitude vs Time

uPlot chart will show altitude changes over time

軌道要素

1 57953U 23148U 25305.11641053 .00000379 00000-0 24921-4 0 9994
2 57953 53.1586 251.4217 0001028 91.7511 268.3607 15.30180404118879
Epoch: Nov 1, 2025 • Age: 30 hours

現在のステータス

高度 488.3 km
速度 7.62 km/s
衛星直下点 -38.31°S, 42.4°E
打ち上げ日 Sep 25, 2023
運用期間 2.1 years
タイプ internet

技術仕様

分類 Payload
質量 730.00 kg
乾燥質量 700.00 kg
総質量 730.00 kg
長さ 0.30 m
直径 4.10 m
スパン 29.00 m
形状 Box + pan
製造者 SPXS
バスタイプ Starlink V2M
フェーズステータス In Orbit
所有者/国 SPXS/US

大規模コンステレーション

Loading constellations...